Find Starlink 34925

NORAD ID: 65249 Int'l Des: 2025-179 Owner: SPXS Country: US Constellation: starlink operational
LEOCIRCULARRETROGRADESSO

現在のビュー

3D地球を読み込み中...

About Starlink 34925

Starlink 34925 (NORAD 65249) is a starlink constellation satellite (v2 mini) launched Aug 18, 2025 by SPXS of US. It operates in LEO, CIRCULAR, RETROGRADE, SSO orbit with a mass of 575.00 kg.

次回通過

Passes for default location (London). Set your location on the main map for personalized predictions.

高度履歴

Loading altitude history...

軌道要素

1 65249U 25179Q 26263.04930315 .00011332 00000-0 35265-3 0 9998
2 65249 97.2837 302.3811 0001109 96.7650 263.3719 15.33458307 61249
Epoch: Sep 20, 2026 • Age: 17 hours

現在のステータス

高度 477.1 km
遠地点 / 近地点 N/A
速度 7.63 km/s
衛星直下点 -29.61°S, 33.36°E
打ち上げ日 Aug 18, 2025
運用期間 1 year
タイプ internet

技術仕様

分類 Payload
質量 575.00 kg
乾燥質量 530.00 kg
長さ 0.30 m
スパン 29.00 m
形状 ? Box + pan
製造者 SPXS
バスタイプ Starlink V2MO
フェーズステータス In Orbit
所有者/国 SPXS/US

Most Searched